Location: Amsterdam
(30.7274°N, 84.4357°W)
Time: 18:17:37
(UTC+00:00)

Tiros 1 - Pass Details

Date: 21 February 2026
Orbit: 618 x 649 km, 48.4° (Epoch: 10 March)

Event Time Altitude Azimuth Distance (km) Brightness Sun altitude
Rises 14:14:33 0° 287° (WNW) 2,914 9.9 23.7°
Reaches altitude 10° 14:18:20 10° 318° (NW) 2,000 9.2 24.4°
Maximum altitude 14:20:10 12° 342° (NNW) 1,857 9.2 24.8°
Drops below altitude 10° 14:22:00 10° 6° (N) 1,993 9.5 25.1°
Sets 14:25:46 0° 37° (NE) 2,895 10.6 25.8°
